Powrót do katalogu

STARLINK-30287

AktywnyŁącznośćVLEO
NORAD 57709·PAYLOAD·🇺🇸 United States

Wystrzelony Aug 27, 2023 z Cape Canaveral Space Force Station

Loading…

Następne Przeloty (najbliższe 24 godziny)

TLE

ŚwieżeSource: CelesTrak SupGP

Epoka: Sep 14, 2026, 22:16 UTC

1 57709C 23129M   26257.92826389  .00001482  00000+0  53688-4 0  2579
2 57709  43.0013 129.0016 0001774 265.4459 193.0853 15.27571504    11

Śledź STARLINK-30287 w czasie rzeczywistym z AllMySat

Download on the App Store